This demonstration page uses our WeatherBlox Daily Observations layout. Learn more.

Left ArrowRight Arrow

44.8408, -93.29828

Hourly Observations for February 14, 2019

Temp ( °F °C ) Dew Point ( °F °C ) Humidity (%) Winds ( mph kmh ) Pressure ( in mb ) Visibility ( mi km ) Precip ( " mm )
12:53 am 00:53 Cloudy 20 -6.7 14 -10 78 78 SSE 6 9 29.66 1004 10 16 0.00 0.00
1:53 am 01:53 Cloudy 19 -7.2 14 -10 81 81 SE 7 11 29.62 1003 10 16 0.00 0.00
2:53 am 02:53 Cloudy 19 -7.2 15 -9.4 84 84 ESE 7 11 29.60 1002 10 16 0.00 0.00
3:53 am 03:53 Cloudy 19 -7.2 15 -9.4 84 84 E 5 7 29.60 1002 10 16 0.00 0.00
4:53 am 04:53 Cloudy 20 -6.7 15 -9.4 81 81 ESE 6 9 29.59 1002 10 16 0.00 0.00
5:53 am 05:53 Cloudy 20 -6.7 16 -8.9 85 85 ESE 6 9 29.57 1002 10 16 0.00 0.00
6:53 am 06:53 Cloudy 20 -6.7 16 -8.9 85 85 N 3 6 29.58 1002 10 16 0.00 0.00
7:53 am 07:53 Cloudy 20 -6.7 17 -8.3 89 89 NNW 5 7 29.60 1003 9 14 0.00 0.00
8:53 am 08:53 Mostly Cloudy 22 -5.6 18 -7.8 85 85 Calm 29.61 1003 7 11 0.00 0.00
9:53 am 09:53 Mostly Cloudy 23 -5 17 -8.3 78 78 NNW 12 19 29.62 1003 7 11 0.00 0.00
10:53 am 10:53 Mostly Cloudy 22 -5.6 16 -8.9 78 78 NNW 13 20 29.65 1004 8 13 0.00 0.00
11:53 am 11:53 Mostly Cloudy 22 -5.6 15 -9.4 75 75 NNW 13 20 29.67 1005 8 13 0.00 0.00
12:53 pm 12:53 Cloudy 22 -5.6 15 -9.4 75 75 NW 14 22 29.67 1005 7 11 0.00 0.00
1:53 pm 13:53 Windy with Snow Likely 20 -6.7 15 -9.4 81 81 NW 20 31 29.69 1006 2 3 0.00 0.03
1:55 pm 13:55 Mostly Cloudy with Light Snow 20 -6.7 15 -9.4 81 81 NW 18 30 29.72 1006 1 2 0.00 0.03
2:04 pm 14:04 Cloudy with Light Snow 20 -6.7 16 -8.9 85 85 NW 15 24 29.73 1007 1 1 0.00 0.03
2:19 pm 14:19 Mostly Cloudy with Light Snow 19 -7.2 16 -8.9 88 88 NW 15 24 29.74 1007 1 1 0.01 0.25
2:22 pm 14:22 Mostly Cloudy with Light Snow 19 -7.2 16 -8.9 88 88 WNW 16 26 29.74 1007 1 2 0.01 0.25
2:33 pm 14:33 Mostly Cloudy with Light Snow 17 -8.3 14 -10 88 88 WNW 18 30 29.75 1007 1 1 0.01 0.25
2:53 pm 14:53 Mostly Cloudy with Light Snow 15 -9.4 13 -10.6 91 91 NW 22 35 29.73 1007 1 2 0.02 0.51
3:07 pm 15:07 Mostly Cloudy with Light Snow 15 -9.4 12 -11.1 88 88 WNW 17 28 29.77 1008 1 2 0.00 0.03
3:43 pm 15:43 Windy with Snow Likely 14 -10 10 -12.2 84 84 NW 21 33 29.79 1009 3 5 0.00 0.03
3:53 pm 15:53 Mostly Cloudy with Light Snow 14 -10 9 -12.8 80 80 NW 20 31 29.77 1008 6 10 0.00 0.03
4:20 pm 16:20 Partly Cloudy 13 -10.6 6 -14.4 74 74 NW 17 28 29.81 1010 8 13 0.00 0.03
4:53 pm 16:53 Mostly Sunny 13 -10.6 5 -15 70 70 NW 24 39 29.78 1009 8 13 0.00 0.03
5:53 pm 17:53 Clear 11 -11.7 2 -16.7 67 67 NW 15 24 29.83 1010 9 14 0.00 0.00
6:53 pm 18:53 Clear 9 -12.8 1 -17.2 70 70 NW 20 31 29.87 1011 10 16 0.00 0.00
7:53 pm 19:53 Clear 7 -13.9 -1 -18.3 70 70 NW 20 31 29.89 1012 10 16 0.00 0.00
8:53 pm 20:53 Clear 5 -15 -2 -18.9 72 72 NW 17 28 29.91 1013 10 16 0.00 0.00
9:53 pm 21:53 Clear 4 -15.6 -3 -19.4 73 73 NW 16 26 29.94 1014 10 16 0.00 0.00
10:53 pm 22:53 Mostly Clear 2 -16.7 -4 -20 76 76 NW 21 33 29.96 1015 10 16 0.00 0.00
11:53 pm 23:53 Mostly Clear 1 -17.2 -5 -20.6 75 75 WNW 20 31 29.98 1015 10 16 0.00 0.00

Powered by AerisWeather